Location: ????????
(55.6333°N, 37.7000°E)
Time: 14:05:51
(UTC+00:00)

COSMOS 2455 - Pass Details

Date: 19 May 2025
Orbit: 899 x 909 km, 67.1° (Epoch: 20 June)

Event Time Altitude Azimuth Distance (km) Brightness Sun altitude
Rises 23:33:07 0° 317° (NW) 3,546 6.2 -9.7°
Reaches altitude 10° 23:35:38 10° 317° (NW) 2,602 5.5 -9.5°
Maximum altitude 23:41:42 89° 43° (NE) 917 2.9 -9.1°
Drops below altitude 10° 23:47:44 10° 139° (SE) 2,591 5.1 -8.6°
Sets 23:50:14 0° 140° (SE) 3,530 5.8 -8.4°
